TimeEST,TemperatureF,Dew PointF,Humidity,Sea Level PressureIn,VisibilityMPH,Wind Direction,Wind SpeedMPH,Gust SpeedMPH,PrecipitationIn,Events,Conditions,WindDirDegrees,DateUTC
12:15 AM,30.2,28.4,93,30.09,10.0,SSE,10.4,26.5,N/A,,Overcast,150,2013-12-09 05:15:00
12:35 AM,30.2,28.4,93,30.07,10.0,SSE,18.4,23.0,N/A,,Overcast,160,2013-12-09 05:35:00
12:55 AM,30.2,28.4,93,30.06,4.0,SSE,16.1,25.3,N/A,,Overcast,160,2013-12-09 05:55:00
1:15 AM,30.2,30.2,100,30.05,4.0,SSE,12.7,26.5,N/A,,Overcast,160,2013-12-09 06:15:00
1:35 AM,30.2,30.2,100,30.04,7.0,SSE,13.8,19.6,N/A,,Overcast,160,2013-12-09 06:35:00
1:55 AM,30.2,30.2,100,30.03,5.0,SSE,12.7,20.7,N/A,,Overcast,160,2013-12-09 06:55:00
2:15 AM,32.0,30.2,93,30.03,5.0,SSE,13.8,20.7,N/A,,Overcast,160,2013-12-09 07:15:00
2:35 AM,32.0,30.2,93,30.01,4.0,SSE,13.8,20.7,N/A,,Overcast,160,2013-12-09 07:35:00
2:55 AM,32.0,32.0,100,30.01,5.0,SSE,12.7,24.2,N/A,,Overcast,160,2013-12-09 07:55:00
3:15 AM,33.8,32.0,93,30.00,3.0,SSE,11.5,20.7,0.01,,Overcast,160,2013-12-09 08:15:00
3:35 AM,33.8,32.0,93,29.99,4.0,SSE,12.7,23.0,0.01,,Overcast,150,2013-12-09 08:35:00
3:55 AM,33.8,32.0,93,29.99,5.0,SSE,11.5,19.6,0.02,,Overcast,150,2013-12-09 08:55:00
4:15 AM,33.8,32.0,93,29.97,3.0,SE,10.4,-,N/A,,Overcast,140,2013-12-09 09:15:00
4:35 AM,33.8,33.8,100,29.97,2.5,SE,6.9,-,N/A,,Overcast,130,2013-12-09 09:35:00
4:55 AM,33.8,33.8,100,29.98,2.5,SSE,8.1,-,N/A,,Overcast,160,2013-12-09 09:55:00
5:35 AM,33.8,33.8,100,29.97,4.0,South,8.1,-,N/A,,Overcast,170,2013-12-09 10:35:00
5:55 AM,33.8,33.8,100,29.97,3.0,South,8.1,-,N/A,,Overcast,170,2013-12-09 10:55:00
6:15 AM,33.8,33.8,100,29.97,3.0,South,4.6,-,N/A,,Overcast,170,2013-12-09 11:15:00
6:35 AM,33.8,33.8,100,29.95,2.5,South,6.9,-,N/A,,Overcast,170,2013-12-09 11:35:00
6:55 AM,33.8,33.8,100,29.96,3.0,South,4.6,-,0.01,,Overcast,170,2013-12-09 11:55:00
7:15 AM,35.6,35.6,100,29.97,2.0,SSW,3.5,-,N/A,,Overcast,210,2013-12-09 12:15:00
7:35 AM,33.8,33.8,100,29.98,2.5,Calm,Calm,-,0.02,,Overcast,0,2013-12-09 12:35:00
7:55 AM,33.8,33.8,100,29.99,1.0,Calm,Calm,-,0.02,,Overcast,0,2013-12-09 12:55:00
8:15 AM,35.6,35.6,100,29.98,1.8,Calm,Calm,-,0.01,,Overcast,0,2013-12-09 13:15:00
8:35 AM,35.6,35.6,100,29.99,1.2,SW,4.6,-,0.01,,Overcast,230,2013-12-09 13:35:00
8:55 AM,35.6,35.6,100,29.98,0.2,SW,4.6,-,0.01,,Overcast,230,2013-12-09 13:55:00
9:15 AM,35.6,35.6,100,29.99,0.2,SW,4.6,-,N/A,,Overcast,230,2013-12-09 14:15:00
9:35 AM,37.4,37.4,100,29.99,0.2,SW,8.1,-,N/A,,Overcast,230,2013-12-09 14:35:00
9:55 AM,37.4,37.4,100,29.99,3.0,WSW,10.4,-,N/A,,Overcast,240,2013-12-09 14:55:00
10:15 AM,37.4,37.4,100,30.00,2.5,WSW,11.5,-,N/A,,Overcast,250,2013-12-09 15:15:00
10:35 AM,37.4,37.4,100,30.00,2.5,WSW,9.2,-,N/A,,Overcast,250,2013-12-09 15:35:00
10:55 AM,37.4,37.4,100,30.00,4.0,WSW,11.5,-,N/A,,Overcast,250,2013-12-09 15:55:00
11:15 AM,37.4,37.4,100,-9999,7.0,WSW,13.8,18.4,N/A,,Overcast,250,2013-12-09 16:15:00
11:35 AM,37.4,37.4,100,-9999,10.0,West,15.0,-,N/A,,Overcast,260,2013-12-09 16:35:00
11:55 AM,37.4,37.4,100,29.99,10.0,West,15.0,25.3,N/A,,Overcast,270,2013-12-09 16:55:00
12:15 PM,37.4,37.4,100,30.00,10.0,West,19.6,24.2,N/A,,Overcast,260,2013-12-09 17:15:00
12:35 PM,37.4,35.6,93,30.00,10.0,West,16.1,21.9,N/A,,Overcast,260,2013-12-09 17:35:00
12:55 PM,37.4,33.8,87,30.01,10.0,West,17.3,25.3,N/A,,Overcast,270,2013-12-09 17:55:00
1:15 PM,37.4,33.8,87,-9999,10.0,West,15.0,24.2,N/A,,Overcast,270,2013-12-09 18:15:00
1:35 PM,35.6,33.8,93,30.00,10.0,West,17.3,23.0,N/A,,Overcast,270,2013-12-09 18:35:00
1:55 PM,35.6,33.8,93,-9999,10.0,West,15.0,24.2,N/A,,Overcast,270,2013-12-09 18:55:00
2:15 PM,35.6,32.0,87,30.00,10.0,West,19.6,26.5,N/A,,Overcast,260,2013-12-09 19:15:00
2:35 PM,35.6,32.0,87,30.00,10.0,West,12.7,25.3,N/A,,Overcast,280,2013-12-09 19:35:00
2:55 PM,35.6,30.2,81,30.00,10.0,West,15.0,19.6,N/A,,Overcast,270,2013-12-09 19:55:00
3:15 PM,35.6,30.2,81,30.01,10.0,West,16.1,20.7,N/A,,Overcast,270,2013-12-09 20:15:00
3:35 PM,33.8,30.2,87,29.99,10.0,West,12.7,24.2,N/A,,Overcast,280,2013-12-09 20:35:00
3:55 PM,33.8,30.2,87,29.99,10.0,West,11.5,17.3,N/A,,Overcast,280,2013-12-09 20:55:00
4:15 PM,33.8,30.2,87,-9999,10.0,West,13.8,20.7,N/A,,Overcast,270,2013-12-09 21:15:00
4:35 PM,33.8,30.2,87,-9999,10.0,West,15.0,20.7,N/A,,Overcast,270,2013-12-09 21:35:00
4:55 PM,33.8,30.2,87,-9999,10.0,West,16.1,21.9,N/A,,Overcast,270,2013-12-09 21:55:00
5:15 PM,33.8,28.4,81,-9999,10.0,West,18.4,25.3,N/A,,Overcast,270,2013-12-09 22:15:00
5:35 PM,33.8,28.4,81,-9999,10.0,West,15.0,25.3,N/A,,Overcast,270,2013-12-09 22:35:00
5:55 PM,33.8,28.4,81,-9999,10.0,West,16.1,21.9,N/A,,Overcast,280,2013-12-09 22:55:00
6:15 PM,33.8,28.4,81,-9999,10.0,West,12.7,20.7,N/A,,Overcast,280,2013-12-09 23:15:00
6:35 PM,33.8,28.4,81,-9999,10.0,West,13.8,23.0,N/A,,Overcast,280,2013-12-09 23:35:00
6:55 PM,33.8,28.4,81,-9999,10.0,West,13.8,21.9,N/A,,Overcast,270,2013-12-09 23:55:00
7:15 PM,33.8,28.4,81,-9999,10.0,West,18.4,25.3,N/A,,Overcast,260,2013-12-10 00:15:00
7:35 PM,32.0,26.6,80,-9999,10.0,WNW,12.7,21.9,N/A,,Overcast,290,2013-12-10 00:35:00
7:55 PM,32.0,26.6,80,-9999,10.0,West,16.1,24.2,N/A,,Overcast,280,2013-12-10 00:55:00
8:15 PM,32.0,26.6,80,-9999,10.0,West,15.0,-,N/A,,Overcast,270,2013-12-10 01:15:00
8:35 PM,32.0,26.6,80,-9999,10.0,West,13.8,18.4,N/A,,Overcast,270,2013-12-10 01:35:00
8:55 PM,30.2,26.6,86,-9999,10.0,West,15.0,19.6,N/A,,Overcast,270,2013-12-10 01:55:00
9:15 PM,30.2,24.8,80,30.09,10.0,West,13.8,24.2,N/A,,Overcast,280,2013-12-10 02:15:00
9:35 PM,30.2,24.8,80,30.09,10.0,West,13.8,21.9,N/A,,Overcast,270,2013-12-10 02:35:00
9:55 PM,30.2,24.8,80,30.08,10.0,West,9.2,-,N/A,,Overcast,270,2013-12-10 02:55:00
10:15 PM,30.2,24.8,80,30.08,10.0,West,13.8,-,N/A,,Overcast,270,2013-12-10 03:15:00
10:35 PM,30.2,24.8,80,30.08,10.0,West,13.8,21.9,N/A,,Overcast,270,2013-12-10 03:35:00
10:55 PM,28.4,24.8,86,30.08,10.0,West,13.8,20.7,N/A,,Overcast,260,2013-12-10 03:55:00
11:15 PM,28.4,24.8,86,30.07,10.0,West,13.8,19.6,N/A,,Overcast,270,2013-12-10 04:15:00
11:35 PM,28.4,23.0,80,30.07,10.0,West,12.7,-,N/A,,Overcast,270,2013-12-10 04:35:00
11:55 PM,28.4,24.8,86,30.06,10.0,West,8.1,-,N/A,,Overcast,270,2013-12-10 04:55:00